When you browse on this site, cookies collect data to enhance your experience and personalize the content and advertising you see.
Visit our Privacy Policy to learn more. By continuing to use the site, you agree to this use of cookies and data.
  • în România
  • Lista ţărilor
  • Pe 7 zile
  • Temperatura apei
  • Hartă satelitară
  • Meteo pe hartă
  • Widget-uri
  • user-avatar
    Intrare

    Meteo pe oră la Korzovo

    Astăzi, 21 Martie, Joi

    Timp Temperatura Precipitaţii Vânt Presiune Umiditate
    00:00 -3°C° 0 mm 2 m/s 744 mmHg 88%
    01:00 -4°C° 0 mm 3 m/s 744 mmHg 87%
    02:00 -4°C° 0 mm 3 m/s 743 mmHg 88%
    03:00 -4°C° 0.1 mm 3 m/s 743 mmHg 89%
    04:00 -2°C° 0.1 mm 3 m/s 743 mmHg 90%
    05:00 -2°C° 0.1 mm 3 m/s 742 mmHg 91%
    06:00 -2°C° 0.1 mm 3 m/s 742 mmHg 90%
    07:00 -1°C° 0.1 mm 3 m/s 742 mmHg 89%
    08:00 0°C° 0 mm 3 m/s 742 mmHg 88%
    09:00 0°C° 0 mm 3 m/s 742 mmHg 85%
    10:00 +1°C° 0 mm 3 m/s 742 mmHg 83%
    11:00 +1°C° 0 mm 3 m/s 743 mmHg 81%
    12:00 +1°C° 0 mm 3 m/s 743 mmHg 80%
    13:00 +2°C° 0 mm 3 m/s 743 mmHg 79%
    14:00 +3°C° 0 mm 2 m/s 743 mmHg 78%
    15:00 +3°C° 0 mm 2 m/s 743 mmHg 80%
    16:00 +2°C° 0 mm 2 m/s 743 mmHg 83%
    17:00 +2°C° 0 mm 2 m/s 743 mmHg 85%
    18:00 +2°C° 0 mm 2 m/s 743 mmHg 87%
    19:00 +1°C° 0 mm 2 m/s 743 mmHg 89%
    20:00 +1°C° 0 mm 2 m/s 743 mmHg 92%
    21:00 -1°C° 0 mm 2 m/s 742 mmHg 92%
    22:00 -1°C° 0 mm 2 m/s 742 mmHg 92%
    23:00 -1°C° 0 mm 2 m/s 741 mmHg 92%

    Mâine, 22 Martie, Vineri

    Timp Temperatura Precipitaţii Vânt Presiune Umiditate
    00:00 -1°C° 0.1 mm 3 m/s 740 mmHg 92%
    01:00 0°C° 0.1 mm 3 m/s 740 mmHg 91%
    02:00 0°C° 0.1 mm 3 m/s 739 mmHg 91%
    03:00 0°C° 0.7 mm 3 m/s 738 mmHg 90%
    04:00 0°C° 0.7 mm 4 m/s 736 mmHg 90%
    05:00 0°C° 0.7 mm 4 m/s 735 mmHg 90%
    06:00 0°C° 1 mm 5 m/s 735 mmHg 88%
    07:00 +1°C° 1 mm 6 m/s 734 mmHg 87%
    08:00 +1°C° 1 mm 6 m/s 734 mmHg 86%
    09:00 -1°C° 0.2 mm 7 m/s 735 mmHg 82%
    10:00 -1°C° 0.2 mm 7 m/s 735 mmHg 77%
    11:00 -2°C° 0.2 mm 7 m/s 736 mmHg 72%
    12:00 -2°C° 0 mm 7 m/s 737 mmHg 72%
    13:00 -2°C° 0 mm 7 m/s 737 mmHg 71%
    14:00 -2°C° 0 mm 7 m/s 738 mmHg 70%
    15:00 -2°C° 0.1 mm 7 m/s 738 mmHg 72%
    16:00 -3°C° 0.1 mm 6 m/s 739 mmHg 74%
    17:00 -3°C° 0.1 mm 6 m/s 739 mmHg 76%
    18:00 -3°C° 0.1 mm 6 m/s 740 mmHg 79%
    19:00 -2°C° 0.1 mm 5 m/s 740 mmHg 81%
    20:00 -2°C° 0.1 mm 5 m/s 740 mmHg 83%
    21:00 -1°C° 0.2 mm 5 m/s 741 mmHg 84%
    22:00 -1°C° 0.2 mm 5 m/s 741 mmHg 85%
    23:00 -1°C° 0.2 mm 5 m/s 742 mmHg 86%

    Poimâine, 23 Martie, Sâmbătă

    Timp Temperatura Precipitaţii Vânt Presiune Umiditate
    00:00 -1°C° 0.1 mm 5 m/s 742 mmHg 86%
    01:00 -1°C° 0.1 mm 5 m/s 743 mmHg 85%
    02:00 -1°C° 0.1 mm 5 m/s 744 mmHg 85%
    03:00 -1°C° 0 mm 5 m/s 744 mmHg 86%
    04:00 -2°C° 0 mm 4 m/s 745 mmHg 88%
    05:00 -2°C° 0 mm 4 m/s 745 mmHg 89%
    06:00 0°C° 0 mm 3 m/s 746 mmHg 89%
    07:00 0°C° 0 mm 3 m/s 747 mmHg 90%
    08:00 0°C° 0 mm 3 m/s 747 mmHg 90%
    09:00 +1°C° 0 mm 2 m/s 747 mmHg 89%
    10:00 +2°C° 0 mm 2 m/s 747 mmHg 87%
    11:00 +3°C° 0 mm 1 m/s 747 mmHg 85%
    12:00 +3°C° 0 mm 1 m/s 747 mmHg 83%
    13:00 +3°C° 0 mm 1 m/s 747 mmHg 82%
    14:00 +4°C° 0 mm 1 m/s 746 mmHg 80%
    15:00 +3°C° 0 mm 1 m/s 746 mmHg 81%
    16:00 +3°C° 0 mm 1 m/s 746 mmHg 83%
    17:00 +2°C° 0 mm 2 m/s 745 mmHg 84%
    18:00 +1°C° 0 mm 2 m/s 745 mmHg 86%
    19:00 -1°C° 0 mm 2 m/s 744 mmHg 87%
    20:00 -1°C° 0 mm 3 m/s 744 mmHg 89%
    21:00 -1°C° 0 mm 3 m/s 743 mmHg 88%
    22:00 -2°C° 0 mm 4 m/s 743 mmHg 86%
    23:00 -1°C° 0 mm 4 m/s 742 mmHg 85%

    24 Martie, Duminică

    Timp Temperatura Precipitaţii Vânt Presiune Umiditate
    00:00 -1°C° 0.2 mm 4 m/s 741 mmHg 85%
    01:00 -1°C° 0.2 mm 4 m/s 740 mmHg 85%
    02:00 -1°C° 0.2 mm 4 m/s 740 mmHg 85%
    03:00 -1°C° 0.7 mm 4 m/s 739 mmHg 87%
    04:00 -1°C° 0.7 mm 4 m/s 738 mmHg 89%
    05:00 -1°C° 0.7 mm 4 m/s 738 mmHg 90%
    06:00 -1°C° 0 mm 4 m/s 738 mmHg 90%
    07:00 0°C° 0 mm 3 m/s 737 mmHg 90%
    08:00 +1°C° 0 mm 3 m/s 737 mmHg 90%
    09:00 0°C° 0 mm 4 m/s 737 mmHg 88%
    10:00 +1°C° 0 mm 4 m/s 737 mmHg 87%
    11:00 +1°C° 0 mm 4 m/s 737 mmHg 85%
    12:00 +3°C° 0.1 mm 4 m/s 737 mmHg 79%
    13:00 +2°C° 0.1 mm 5 m/s 737 mmHg 73%
    14:00 +2°C° 0.1 mm 5 m/s 736 mmHg 67%
    15:00 +1°C° 0.1 mm 4 m/s 737 mmHg 69%
    16:00 0°C° 0.1 mm 4 m/s 737 mmHg 71%
    17:00 0°C° 0.1 mm 3 m/s 737 mmHg 72%
    18:00 0°C° 0 mm 3 m/s 737 mmHg 76%
    19:00 -1°C° 0 mm 3 m/s 737 mmHg 79%
    20:00 -2°C° 0 mm 2 m/s 737 mmHg 83%
    21:00 -2°C° 0 mm 2 m/s 737 mmHg 83%
    22:00 -4°C° 0 mm 3 m/s 737 mmHg 84%
    23:00 -4°C° 0 mm 3 m/s 737 mmHg 84%

    25 Martie, Luni

    Timp Temperatura Precipitaţii Vânt Presiune Umiditate
    00:00 -4°C° 0 mm 3 m/s 737 mmHg 85%
    01:00 -5°C° 0 mm 3 m/s 737 mmHg 85%
    02:00 -5°C° 0 mm 3 m/s 737 mmHg 86%
    03:00 -5°C° 0 mm 3 m/s 737 mmHg 86%
    04:00 -5°C° 0 mm 3 m/s 737 mmHg 86%
    05:00 -5°C° 0 mm 4 m/s 737 mmHg 86%
    06:00 -4°C° 0 mm 4 m/s 737 mmHg 82%
    07:00 -4°C° 0 mm 4 m/s 738 mmHg 79%
    08:00 -3°C° 0 mm 4 m/s 738 mmHg 76%
    09:00 -3°C° 0 mm 4 m/s 738 mmHg 72%
    10:00 -2°C° 0 mm 4 m/s 738 mmHg 69%
    11:00 0°C° 0 mm 3 m/s 738 mmHg 65%
    12:00 0°C° 0 mm 3 m/s 738 mmHg 63%
    13:00 +1°C° 0 mm 3 m/s 738 mmHg 61%
    14:00 +2°C° 0 mm 3 m/s 737 mmHg 59%
    15:00 +2°C° 0 mm 2 m/s 737 mmHg 65%
    16:00 +2°C° 0 mm 2 m/s 737 mmHg 71%
    17:00 +3°C° 0 mm 1 m/s 737 mmHg 77%
    18:00 +2°C° 0.1 mm 1 m/s 737 mmHg 79%
    19:00 +1°C° 0.1 mm 2 m/s 737 mmHg 81%
    20:00 -1°C° 0.1 mm 2 m/s 737 mmHg 83%
    21:00 -1°C° 0.1 mm 2 m/s 737 mmHg 82%
    22:00 -1°C° 0.1 mm 3 m/s 736 mmHg 81%
    23:00 -1°C° 0.1 mm 3 m/s 736 mmHg 80%

    26 Martie, Marţi

    Timp Temperatura Precipitaţii Vânt Presiune Umiditate
    00:00 -2°C° 0.1 mm 3 m/s 737 mmHg 83%
    01:00 -2°C° 0.1 mm 3 m/s 737 mmHg 86%
    02:00 -4°C° 0.1 mm 3 m/s 737 mmHg 90%
    03:00 -4°C° 0.5 mm 3 m/s 737 mmHg 87%
    04:00 -4°C° 0.5 mm 3 m/s 738 mmHg 84%
    05:00 -4°C° 0.5 mm 2 m/s 738 mmHg 81%
    06:00 -5°C° 0 mm 3 m/s 739 mmHg 79%
    07:00 -5°C° 0 mm 3 m/s 739 mmHg 76%
    08:00 -5°C° 0 mm 3 m/s 739 mmHg 73%
    09:00 -4°C° 0 mm 3 m/s 740 mmHg 68%
    10:00 -2°C° 0 mm 2 m/s 740 mmHg 62%
    11:00 -1°C° 0 mm 2 m/s 740 mmHg 56%
    12:00 0°C° 0 mm 3 m/s 740 mmHg 53%
    13:00 0°C° 0 mm 3 m/s 740 mmHg 50%
    14:00 +1°C° 0 mm 3 m/s 739 mmHg 48%
    15:00 0°C° 0 mm 3 m/s 739 mmHg 53%
    16:00 +1°C° 0 mm 2 m/s 738 mmHg 58%
    17:00 -1°C° 0 mm 2 m/s 738 mmHg 64%
    18:00 -1°C° 0 mm 2 m/s 737 mmHg 66%
    19:00 -1°C° 0 mm 3 m/s 737 mmHg 68%
    20:00 -2°C° 0 mm 3 m/s 736 mmHg 71%
    21:00 -2°C° 0.1 mm 3 m/s 736 mmHg 74%
    22:00 -3°C° 0.1 mm 4 m/s 735 mmHg 78%
    23:00 -3°C° 0.1 mm 4 m/s 735 mmHg 82%
    Arată mai mult